Temperature
16 16 16 16 15 15 15 15 15 15 15 14 14 14 14 14 14 14 13 13 13 13 13 13 13 13 13 13 13 13 13 13 13 13 12 12 12 12 12 12 12 12 12
15 15 15 15 15 15 15 15 15 14 14 14 14 14 14 14 14 13 13 13 13 13 13 13 13 13 13 13 13 13 12 12 12 12 12 12 12 12 12 12 12 11 11
15 15 15 15 14 14 14 14 14 14 14 14 14 14 14 13 13 13 13 13 13 13 13 13 13 13 13 13 12 12 12 12 12 12 12 12 12 11 11 11 11 11 11
14 14 14 14 14 14 14 14 14 14 14 13 13 13 13 13 13 13 13 13 13 13 13 13 13 13 13 12 12 12 12 12 12 12 12 11 11 11 11 11 11 11 11
14 14 14 14 14 14 14 14 13 13 13 13 13 13 13 13 13 12 12 12 12 12 12 12 12 12 12 12 12 12 12 12 12 11 11 11 11 11 11 11 11 11 11
13 13 13 13 13 13 13 13 13 13 13 13 12 12 12 12 12 12 12 12 12 12 12 12 12 12 12 12 12 12 12 12 11 11 11 11 11 11 11 11 11 10 10
13 13 13 13 12 13 13 12 12 12 12 12 12 12 12 12 12 12 11 11 11 11 11 11 11 11 12 12 12 12 12 11 11 11 11 11 11 11 11 10 11 10 10
12 12 12 12 12 12 12 12 12 12 12 12 12 11 11 11 11 11 11 11 11 11 11 11 11 11 11 11 11 11 11 11 11 11 11 11 11 11 10 10 10 10 10
12 12 12 12 12 12 12 12 12 11 11 11 11 11 11 11 11 11 11 11 11 11 11 11 10 11 11 11 11 11 11 11 11 11 11 11 11 10 10 10 10 10 9
12 12 12 12 12 12 12 11 11 11 11 11 11 10 10 10 10 10 10 10 10 10 10 10 10 10 10 10 10 10 10 10 10 10 10 10 10 10 10 10 10 9 9
11 11 11 11 11 11 11 11 11 11 11 10 10 10 10 10 10 10 10 10 9 9 10 10 10 10 10 10 10 10 10 10 10 10 10 10 10 10 10 10 9 9 9
11 11 11 11 11 11 11 10 10 10 10 10 10 10 10 9 10 10 9 9 9 9 9 9 9 9 9 9 9 9 9 9 9 9 9 9 9 9 9 9 9 9 9
11 11 11 11 10 10 10 10 10 10 10 9 9 9 9 9 9 9 9 9 9 9 9 9 9 9 9 9 9 9 9 9 9 9 9 9 9 9 9 9 9 9 9
11 10 10 10 10 10 9 9 9 9 9 9 9 9 9 9 9 9 8 8 8 8 8 8 8 8 8 8 8 8 8 8 8 8 8 8 8 8 8 8 8 8 8
10 10 10 9 9 9 9 9 9 9 8 8 8 8 8 8 8 8 8 8 8 8 8 8 8 8 8 7 7 7 7 8 7 7 7 7 7 8 8 8 8 8 8
9 9 9 9 9 8 8 8 8 8 8 8 8 8 8 8 8 8 8 8 8 7 7 7 7 7 7 7 7 7 7 7 7 7 7 7 7 7 7 7 7 7 7
9 9 8 8 8 8 8 8 8 7 7 7 7 7 7 7 7 7 7 7 7 7 7 7 7 6 6 6 6 6 6 6 6 6 6 6 6 6 6 7 7 7 7
9 8 8 8 8 8 8 7 7 7 7 7 7 6 6 7 7 7 7 7 7 6 6 6 6 6 6 6 6 6 6 6 6 6 6 6 6 6 6 6 6 6 6
8 8 8 8 7 7 7 7 7 6 6 6 6 6 6 6 6 6 6 6 6 6 5 5 5 5 5 5 5 5 6 6 5 5 5 6 6 6 6 6 6 6 6
8 8 7 7 7 7 7 6 6 6 6 6 6 6 5 5 5 5 5 5 5 5 5 5 5 5 5 5 5 5 5 5 5 5 5 5 5 5 5 5 5 5 5
7 7 7 7 7 6 6 6 6 6 5 5 5 5 5 5 5 5 5 5 5 5 4 5 5 4 4 5 5 5 5 5 5 5 5 5 5 5 5 5 5 5 4
7 7 6 6 6 6 6 6 5 5 5 5 5 5 5 4 4 4 4 4 4 4 4 4 4 4 4 4 4 4 4 4 4 4 4 4 4 4 4 4 4 4 4
6 6 6 6 6 5 5 5 5 5 5 5 5 4 4 4 4 4 4 4 4 4 4 4 4 4 4 4 4 4 4 4 4 4 4 4 4 3 3 3 3 3 3
6 6 5 5 5 5 5 5 5 4 4 4 4 4 4 4 4 4 4 4 4 4 3 3 3 3 3 3 3 3 3 3 3 3 3 3 3 3 3 3 3 3 3
5 5 5 5 5 5 4 4 4 4 4 4 4 4 4 4 4 4 3 3 3 3 3 3 3 3 3 3 3 3 3 3 3 3 3 3 3 3 2 2 2 2 3
5 4 4 4 4 4 4 4 4 4 4 4 4 4 4 4 3 3 3 3 3 3 3 3 3 3 3 3 2 2 2 2 2 2 2 2 2 2 2 2 2 2 2
Wind_Speed
1 2 2 3 2 2 2 3 3 2 3 2 2 2 1 1 2 2 2 3 3 3 3 3 3 3 2 2 1 1 1 1 2 1 1 1 1 1 3 4 5 5 6
1 1 1 2 2 2 2 2 2 2 2 2 2 2 2 1 1 2 2 2 3 3 4 4 4 3 3 2 2 2 2 2 3 2 2 2 3 3 3 3 3 4 5
1 0 1 1 1 1 1 2 2 3 3 3 2 2 2 2 2 1 2 2 2 2 3 3 3 3 3 2 2 2 2 2 2 3 3 2 2 2 2 2 3 3 4
1 1 1 1 1 1 1 1 1 2 3 3 3 3 2 2 2 2 1 2 2 2 3 3 3 3 4 3 3 3 2 2 1 1 2 2 2 2 2 2 2 2 2
1 1 1 1 1 0 1 1 1 1 1 2 3 2 2 2 1 1 1 1 1 2 2 3 3 2 3 3 3 3 3 2 2 2 2 2 2 2 3 3 2 2 2
1 1 1 1 1 0 1 1 1 1 1 1 2 3 2 1 1 1 0 2 2 2 2 3 3 2 2 3 4 4 5 4 4 3 3 3 3 3 2 2 2 2 2
1 1 2 1 1 1 0 1 1 1 1 1 2 2 2 2 2 1 1 2 2 3 2 2 2 2 1 1 2 3 3 4 6 5 4 5 4 4 4 3 3 3 3
0 0 1 2 2 1 1 1 1 1 2 1 1 2 2 2 2 1 2 2 3 3 3 2 2 2 1 1 1 2 3 3 4 4 4 5 4 4 5 5 5 3 2
0 0 1 1 2 2 2 2 1 1 1 1 2 2 1 1 2 2 2 2 3 3 2 1 1 1 2 1 0 2 2 4 4 5 5 4 5 4 3 1 2 2 2
0 1 1 0 1 2 3 2 1 1 1 1 1 1 2 1 1 2 2 1 2 2 2 1 2 2 2 1 1 2 3 4 3 3 3 3 3 4 4 4 4 3 2
0 1 0 0 0 1 1 1 1 1 1 1 1 1 1 1 1 2 2 2 2 2 2 2 2 2 2 2 2 2 4 4 2 2 2 2 2 2 3 3 3 4 4
1 1 1 1 1 2 1 0 1 1 1 0 1 1 1 0 1 2 2 3 2 1 2 2 2 3 4 4 3 5 5 3 1 1 1 2 3 3 4 4 4 4 4
2 1 1 1 2 2 2 1 1 1 1 1 1 1 1 0 0 0 2 2 3 2 2 3 3 4 3 3 4 5 3 1 1 2 3 3 3 4 3 2 2 3 2
2 2 1 1 2 2 2 1 1 1 0 1 1 1 1 1 0 0 1 2 2 2 2 2 3 3 2 2 3 3 2 1 2 3 3 3 2 2 2 2 2 2 1
1 2 2 1 1 1 2 2 1 1 2 1 0 0 1 1 1 1 0 1 1 2 2 1 1 1 1 1 1 2 1 1 2 2 2 2 2 2 3 2 2 2 3
1 1 1 1 1 1 2 2 2 2 2 2 1 1 1 1 1 1 0 1 1 1 1 1 2 2 2 2 2 2 2 2 2 2 3 3 3 3 3 2 2 3 4
2 1 1 1 1 1 1 1 1 0 1 1 1 1 1 1 2 2 1 1 1 1 0 2 2 2 2 2 2 2 3 3 3 2 3 3 3 3 3 3 3 3 4
1 1 1 1 0 0 1 1 1 1 1 2 2 2 2 1 0 1 2 1 1 1 1 2 2 2 2 2 2 2 3 3 3 3 3 3 3 3 3 4 4 4 4
2 1 1 0 1 1 1 1 1 1 1 1 1 1 2 1 1 1 1 1 1 1 2 2 2 2 2 2 2 3 3 3 3 2 3 3 3 3 4 4 4 5 5
2 2 2 1 1 1 1 1 1 1 2 1 1 1 0 1 0 0 1 1 1 2 2 2 2 2 2 2 2 3 3 3 3 3 3 3 3 3 4 4 4 4 4
2 2 3 2 2 2 2 2 2 2 2 2 2 2 1 2 2 2 2 2 2 2 2 2 2 2 2 2 2 3 3 3 3 3 3 3 3 3 3 3 4 4 4
2 2 2 2 2 2 2 2 2 3 3 3 2 2 3 3 2 2 2 2 2 2 2 2 2 2 2 2 2 2 3 3 3 3 3 3 3 3 4 3 3 3 4
2 2 2 2 2 2 3 3 3 3 3 3 2 2 3 3 3 3 3 3 2 2 2 2 2 2 2 2 2 2 3 3 3 3 3 4 3 3 4 4 4 4 4
2 2 2 2 2 2 2 3 3 3 3 3 3 3 3 3 3 3 3 3 3 3 2 2 3 3 4 3 3 3 3 3 4 4 4 4 4 4 4 4 4 4 4
2 3 3 3 3 3 3 2 3 3 3 3 2 2 2 3 3 3 3 3 3 3 4 3 3 4 5 5 4 3 3 4 5 5 4 3 3 3 3 4 4 4 3
3 3 3 3 3 3 3 3 3 3 3 3 3 3 3 3 3 3 3 3 3 3 4 4 4 5 6 5 4 4 4 4 5 6 4 3 3 3 3 3 3 3 3
Wind_Direction
204 198 188 170 172 173 178 173 164 171 168 179 191 183 179 176 167 171 210 221 212 210 201 213 228 206 196 205 196 205 233 175 211 271 246 184 179 183 151 178 179 166 186
182 215 186 150 165 175 171 174 170 163 170 176 180 174 175 170 160 170 207 229 230 226 216 209 220 214 203 206 199 208 214 211 193 217 233 209 205 190 171 185 185 180 182
123 213 191 163 173 198 192 181 182 178 176 175 175 178 176 171 177 189 199 227 247 243 236 225 224 209 205 206 203 217 218 224 196 198 220 215 210 189 178 201 191 178 196
133 172 220 184 169 192 234 189 199 185 176 179 181 179 175 172 187 194 199 215 240 256 257 244 234 217 210 204 208 214 204 212 221 204 211 212 204 197 175 197 215 214 214
143 172 213 215 118 158 199 185 221 182 187 183 173 168 171 174 194 153 209 228 257 272 272 266 248 226 216 208 207 206 198 201 209 207 218 223 217 190 207 206 204 216 224
153 198 171 126 124 184 198 183 213 181 182 191 177 171 169 175 128 104 267 245 242 254 259 271 264 252 233 217 209 200 196 202 205 207 219 218 226 213 205 204 196 200 251
164 194 154 147 170 196 189 195 189 174 169 190 194 178 171 176 162 189 268 265 262 258 255 257 273 272 263 227 228 214 220 228 213 203 212 225 221 214 205 213 210 203 222
190 220 169 168 181 189 178 212 191 177 173 194 210 205 183 187 176 196 254 259 270 263 257 250 251 263 288 271 244 229 234 242 232 218 219 228 221 214 206 208 207 205 222
102 326 244 194 176 174 180 205 206 179 194 193 208 214 192 205 180 186 197 253 271 272 263 274 288 267 299 6 274 244 249 257 246 235 223 225 225 223 196 171 187 179 239
234 285 301 241 175 185 186 199 193 164 216 208 214 208 194 199 176 164 187 242 271 288 296 292 310 313 326 323 266 244 255 260 252 251 248 244 230 226 216 196 189 190 206
104 33 27 50 166 157 169 172 155 153 180 218 224 225 207 184 167 158 179 242 264 285 300 305 314 336 324 303 285 258 258 268 252 219 219 226 231 227 222 210 197 194 206
90 74 66 59 70 77 91 150 164 141 152 203 257 258 236 204 157 191 204 236 273 260 276 283 299 327 320 301 286 286 278 277 250 220 225 229 226 228 228 222 211 206 208
135 118 94 86 86 98 107 99 90 108 141 237 267 261 262 299 324 211 214 247 279 281 292 311 313 304 298 292 285 289 292 272 226 227 235 238 231 230 226 222 219 203 209
149 131 104 88 81 95 105 103 87 82 99 218 263 279 278 273 331 289 253 249 269 282 300 312 314 311 293 287 292 291 288 269 234 230 238 250 251 237 230 216 213 200 210
131 126 118 105 114 115 104 95 95 79 105 136 227 274 290 283 317 16 109 245 255 248 278 288 299 314 307 300 296 282 274 287 271 255 243 251 255 240 242 229 210 200 210
120 114 119 113 124 137 135 102 96 96 83 97 114 126 9 5 23 39 29 359 337 286 276 275 273 271 260 254 260 266 265 263 264 264 251 242 244 244 245 243 220 215 224
136 125 115 100 121 160 141 142 132 350 345 333 304 300 273 352 17 13 339 343 344 8 284 266 270 267 270 258 251 250 254 259 257 258 256 251 248 246 247 245 234 233 235
145 127 128 136 183 188 169 165 159 159 312 319 298 270 258 248 311 356 345 6 335 312 258 260 265 269 266 264 261 263 265 269 269 267 264 263 253 248 247 244 239 234 236
149 137 147 177 234 202 191 179 179 184 226 279 327 310 274 247 243 325 68 118 244 268 276 276 276 274 273 269 264 261 262 264 267 270 268 267 265 258 251 247 244 245 242
168 173 177 218 243 217 203 197 211 218 221 225 244 276 28 45 289 271 242 251 249 260 262 262 269 270 273 274 273 271 270 272 270 263 262 264 266 262 253 249 249 249 246
181 191 202 220 233 221 207 212 227 229 227 223 222 227 198 205 222 221 223 244 260 261 263 265 268 270 271 276 283 279 274 274 270 268 269 268 268 270 264 254 251 250 251
189 196 205 214 222 227 221 221 225 229 234 240 234 229 229 227 220 215 226 242 249 252 246 250 263 264 261 269 281 290 290 288 282 275 273 273 273 276 271 258 258 255 252
210 214 227 236 233 238 232 224 227 232 235 237 234 228 233 236 231 228 233 241 242 235 238 236 241 261 273 273 274 270 276 281 282 281 280 275 269 271 270 261 256 259 255
227 226 228 234 239 237 238 230 228 232 236 237 234 232 236 235 233 232 233 233 236 240 236 233 241 251 264 266 265 271 280 296 304 299 285 282 279 270 269 267 261 255 252
239 237 233 231 235 240 245 243 238 239 242 242 240 240 246 244 243 240 239 234 236 239 240 241 252 257 264 266 268 269 278 298 307 306 295 278 276 278 273 270 262 260 253
249 253 247 238 236 235 234 238 242 245 244 243 242 242 246 247 249 247 242 241 244 244 244 246 248 256 264 263 266 271 280 290 295 294 287 275 268 274 281 282 274 261 259
Height
1509 1510 1511 1512 1513 1514 1515 1515 1516 1517 1518 1519 1520 1521 1521 1522 1522 1523 1524 1525 1525 1526 1527 1528 1529 1530 1531 1531 1532 1533 1533 1534 1533 1534 1534 1534 1534 1534 1534 1534 1534 1534 1533
1506 1507 1508 1509 1510 1511 1512 1513 1513 1514 1515 1516 1517 1518 1518 1519 1520 1520 1521 1522 1523 1524 1524 1525 1526 1527 1528 1528 1529 1530 1531 1531 1531 1531 1531 1532 1532 1532 1532 1532 1532 1532 1531
1503 1504 1505 1506 1507 1508 1509 1510 1510 1511 1512 1513 1514 1515 1515 1516 1517 1518 1519 1519 1520 1521 1522 1522 1523 1524 1524 1525 1526 1527 1528 1528 1529 1529 1528 1529 1530 1530 1530 1530 1530 1529 1529
1501 1501 1502 1502 1504 1505 1506 1507 1507 1508 1509 1510 1511 1512 1513 1513 1514 1515 1516 1516 1517 1518 1518 1519 1520 1521 1521 1522 1523 1524 1524 1525 1525 1526 1526 1526 1527 1527 1527 1527 1527 1527 1527
1499 1499 1499 1500 1501 1502 1502 1503 1504 1505 1506 1507 1508 1508 1509 1510 1511 1512 1513 1513 1514 1514 1515 1516 1517 1518 1518 1519 1520 1520 1521 1521 1522 1522 1522 1523 1523 1524 1524 1524 1524 1524 1524
1496 1496 1497 1497 1498 1498 1499 1500 1501 1502 1503 1504 1505 1506 1506 1507 1508 1509 1510 1510 1511 1511 1512 1512 1513 1514 1515 1515 1516 1517 1517 1518 1518 1518 1518 1519 1519 1520 1521 1521 1521 1521 1521
1494 1494 1495 1495 1495 1496 1496 1497 1498 1498 1500 1501 1502 1503 1503 1504 1505 1506 1506 1507 1507 1508 1509 1509 1510 1511 1511 1512 1512 1513 1514 1514 1515 1515 1515 1515 1515 1516 1517 1517 1517 1517 1517
1492 1492 1492 1492 1493 1493 1494 1494 1495 1496 1497 1498 1499 1500 1501 1501 1502 1503 1503 1504 1504 1505 1505 1506 1506 1507 1507 1508 1508 1509 1509 1510 1511 1511 1511 1511 1512 1513 1513 1514 1514 1514 1514
1489 1489 1489 1490 1490 1490 1491 1492 1492 1493 1494 1495 1496 1497 1498 1499 1499 1500 1500 1500 1501 1501 1502 1502 1503 1503 1503 1504 1504 1504 1505 1505 1506 1507 1507 1507 1508 1509 1509 1510 1510 1509 1509
1487 1487 1487 1487 1487 1488 1488 1489 1490 1491 1492 1493 1493 1494 1495 1496 1496 1497 1497 1497 1498 1498 1498 1498 1499 1499 1500 1500 1500 1500 1500 1501 1502 1502 1502 1503 1504 1504 1505 1505 1505 1506 1505
1485 1485 1485 1484 1485 1486 1486 1487 1487 1488 1489 1490 1491 1492 1492 1493 1493 1494 1494 1494 1495 1494 1495 1495 1495 1496 1496 1496 1497 1496 1496 1497 1497 1498 1498 1498 1499 1500 1500 1500 1501 1502 1502
1483 1483 1483 1482 1483 1483 1484 1484 1485 1486 1487 1487 1488 1489 1490 1490 1490 1490 1491 1491 1492 1491 1491 1492 1492 1492 1492 1492 1492 1492 1493 1493 1493 1493 1494 1494 1494 1495 1495 1496 1496 1497 1497
1481 1481 1481 1481 1481 1481 1481 1482 1483 1484 1484 1485 1486 1486 1487 1487 1487 1487 1488 1488 1488 1488 1488 1488 1488 1488 1488 1488 1488 1488 1489 1489 1489 1489 1489 1489 1490 1491 1491 1492 1492 1492 1493
1479 1479 1479 1479 1479 1480 1480 1480 1481 1481 1481 1482 1483 1483 1484 1484 1484 1484 1484 1485 1485 1485 1485 1485 1485 1484 1484 1484 1484 1484 1484 1484 1484 1484 1485 1485 1486 1487 1487 1487 1487 1488 1488
1477 1477 1477 1477 1478 1478 1478 1478 1478 1479 1480 1480 1480 1481 1481 1481 1481 1482 1481 1481 1481 1481 1481 1481 1481 1480 1480 1479 1480 1480 1480 1480 1480 1480 1481 1481 1481 1481 1482 1483 1483 1483 1483
1474 1475 1475 1475 1476 1476 1476 1476 1477 1478 1478 1478 1478 1478 1478 1478 1478 1478 1478 1478 1478 1478 1478 1477 1477 1476 1476 1476 1476 1476 1476 1476 1476 1476 1476 1477 1477 1477 1477 1478 1479 1479 1478
1472 1473 1473 1473 1474 1474 1474 1474 1474 1475 1475 1475 1475 1475 1475 1475 1475 1475 1475 1474 1474 1474 1474 1474 1474 1473 1473 1473 1473 1473 1472 1473 1473 1472 1472 1472 1472 1473 1473 1473 1473 1474 1474
1470 1470 1471 1471 1471 1471 1471 1472 1472 1472 1472 1472 1472 1472 1472 1472 1472 1471 1471 1471 1471 1471 1471 1471 1471 1470 1470 1470 1469 1469 1469 1469 1469 1468 1468 1468 1468 1468 1468 1468 1469 1469 1469
1467 1468 1468 1468 1469 1469 1469 1469 1469 1469 1469 1469 1469 1470 1470 1469 1469 1468 1468 1468 1467 1467 1467 1467 1467 1467 1467 1466 1466 1465 1465 1464 1464 1464 1463 1463 1463 1463 1463 1463 1463 1464 1464
1465 1465 1465 1466 1466 1466 1466 1466 1466 1466 1466 1466 1466 1466 1466 1466 1465 1465 1465 1465 1465 1465 1464 1464 1464 1464 1463 1463 1462 1462 1461 1460 1460 1459 1459 1458 1458 1458 1458 1458 1458 1458 1458
1461 1462 1462 1463 1463 1463 1463 1463 1463 1463 1463 1463 1463 1464 1464 1463 1463 1462 1462 1462 1462 1462 1462 1461 1461 1460 1460 1459 1458 1457 1457 1456 1455 1455 1454 1454 1453 1453 1453 1453 1453 1453 1453
1458 1459 1459 1459 1459 1459 1459 1459 1460 1460 1460 1460 1460 1460 1460 1460 1460 1460 1459 1459 1459 1459 1459 1458 1458 1457 1456 1455 1454 1453 1452 1451 1451 1450 1450 1449 1449 1448 1448 1448 1447 1447 1447
1455 1455 1455 1456 1456 1456 1456 1456 1456 1456 1457 1457 1456 1456 1456 1456 1456 1456 1456 1455 1455 1455 1454 1454 1453 1452 1452 1451 1450 1449 1448 1447 1447 1446 1445 1444 1443 1443 1442 1442 1442 1442 1442
1451 1451 1452 1452 1452 1452 1452 1452 1452 1452 1453 1453 1453 1452 1452 1452 1452 1451 1451 1451 1450 1450 1450 1449 1448 1448 1447 1446 1446 1445 1444 1443 1442 1441 1440 1439 1438 1438 1437 1436 1436 1436 1436
1447 1447 1447 1448 1448 1448 1448 1448 1448 1448 1448 1448 1448 1448 1448 1448 1447 1447 1446 1446 1446 1445 1445 1444 1443 1443 1442 1441 1441 1440 1439 1438 1437 1436 1435 1434 1434 1433 1432 1432 1431 1431 1431
1442 1443 1443 1443 1443 1444 1444 1444 1444 1444 1444 1444 1444 1444 1443 1443 1442 1442 1441 1441 1440 1440 1439 1439 1438 1437 1437 1436 1435 1435 1434 1433 1432 1432 1431 1430 1429 1428 1428 1427 1427 1427 1427